This demonstration page uses our WeatherBlox Daily Observations layout. Learn more.

Left ArrowRight Arrow

Hourly Observations for June 14, 2018

Temp ( °F °C ) Dew Point ( °F °C ) Humidity (%) Winds ( mph kmh ) Pressure ( in mb ) Visibility ( mi km ) Precip ( " mm )
12:02 am 00:02 Mostly Cloudy 74 23.3 54 12.2 50 50 SE 14 22 29.91 1013 10 16 0.00 0.00
12:27 am 00:27 Partly Cloudy 73 22.8 55 12.8 53 53 SSE 12 19 29.91 1013 10 16 0.00 0.00
12:54 am 00:54 Clear 73 22.8 55 12.8 53 53 SSE 14 22 29.91 1013 10 16 0.00 0.00
1:54 am 01:54 Clear 73 22.8 56 13.3 55 55 SSE 16 26 29.87 1012 10 16 0.00 0.00
2:54 am 02:54 Clear 72 22.2 58 14.4 61 61 SSE 12 19 29.87 1012 10 16 0.00 0.00
3:54 am 03:54 Clear 71 21.7 60 15.6 68 68 S 14 22 29.86 1011 10 16 0.00 0.00
4:54 am 04:54 Clear 71 21.7 61 16.1 71 71 S 10 17 29.83 1010 10 16 0.00 0.00
5:54 am 05:54 Clear 69 20.6 63 17.2 81 81 S 8 13 29.82 1010 10 16 0.00 0.00
6:54 am 06:54 Sunny 72 22.2 67 19.4 84 84 S 7 11 29.81 1009 10 16 0.00 0.00
7:54 am 07:54 Sunny 77 25 70 21.1 79 79 S 9 15 29.80 1009 10 16 0.00 0.00
8:54 am 08:54 Sunny 82 27.8 71 21.7 69 69 S 13 20 29.80 1009 10 16 0.00 0.00
9:54 am 09:54 Sunny 86 30 71 21.7 61 61 S 13 20 29.81 1010 10 16 0.00 0.00
10:54 am 10:54 Sunny 89 31.7 70 21.1 53 53 S 16 26 29.80 1009 10 16 0.00 0.00
11:54 am 11:54 Sunny 93 33.9 69 20.6 46 46 SSE 16 26 29.80 1009 10 16 0.00 0.00
12:54 pm 12:54 Sunny 95 35 68 20 41 41 SSE 16 26 29.79 1009 10 16 0.00 0.00
1:54 pm 13:54 Sunny 97 36.1 68 20 39 39 SSE 21 33 29.76 1008 10 16 0.00 0.00
2:54 pm 14:54 Sunny 98 36.7 66 18.9 35 35 SSE 22 35 29.74 1007 10 16 0.00 0.00
3:54 pm 15:54 Sunny 99 37.2 66 18.9 34 34 S 25 41 29.72 1006 10 16 0.00 0.00
4:54 pm 16:54 Sunny 99 37.2 64 17.8 32 32 SSE 22 35 29.69 1005 10 16 0.00 0.00
5:54 pm 17:54 Sunny 98 36.7 64 17.8 33 33 S 25 41 29.67 1005 10 16 0.00 0.00
6:54 pm 18:54 Sunny 96 35.6 63 17.2 34 34 S 18 30 29.66 1004 10 16 0.00 0.00
7:54 pm 19:54 Sunny 93 33.9 63 17.2 37 37 S 15 24 29.66 1004 10 16 0.00 0.00
8:54 pm 20:54 Sunny 89 31.7 65 18.3 45 45 SSE 15 24 29.67 1005 10 16 0.00 0.00
9:54 pm 21:54 Clear 88 31.1 67 19.4 50 50 SSE 22 35 29.69 1005 10 16 0.00 0.00
10:54 pm 22:54 Clear 86 30 68 20 55 55 SSE 20 31 29.71 1006 10 16 0.00 0.00
11:54 pm 23:54 Clear 84 28.9 68 20 59 59 S 21 33 29.72 1006 10 16 0.00 0.00

Powered by AerisWeather